7 * 24
多渠道服务支持
TIANMU-1 10 是由中国研制的一颗遥感卫星,主要用于地球观测和空间科学研究。该卫星具备高分辨率成像能力,能够获取高精度的地表信息,服务于资源调查、环境监测、灾害预警等领域。作为“天目”系列卫星的一员,TIANMU-1 10 在技术上实现了多项创新,提升了我国在遥感探测方面的自主能力。该卫星的成功发射,标志着我国在民用航天和遥感应用方面迈出了重要一步。
中国
(CN)
| 数据来源 | 国际轨道数据 |
| 星历时间: | 2025-10-28T23:31:25+0800 16小时前 查看轨道信息 |
| 半长轴: | 6862.619km |
| 偏心率: | 0.0005725 |
| 轨道倾角: | 97.297° |
| 近地点辐角 | 232.023° |
| 升交点赤经 | 352.652° |
| 平近点角 | 128.050° |
| 近地点: | 480.555km |
| 远地点: | 488.413km |
| 周期: | 94.296分钟 |
| 每日圈数: | 15.271017 |